Location: Newark
(40.7066°N, 111.8219°W)
Time: 20:19:03
(UTC+00:00)

Transit 2A Rocket - Pass Details

Date: 23 November 2019
Orbit: 594 x 909 km, 66.7° (Epoch: 05 December)

Event Time Altitude Azimuth Distance (km) Brightness Sun altitude
Rises 04:45:13 0° 232° (SW) 3,060 - -52.5°
Reaches altitude 10° 04:47:49 10° 243° (WSW) 2,096 - -53.0°
Maximum altitude 04:52:03 32° 307° (NW) 1,095 - -53.7°
Drops below altitude 10° 04:56:03 10° 11° (N) 1,980 - -54.4°
Sets 04:58:27 0° 21° (NNE) 2,865 - -54.8°
